TimeCDT,TemperatureF,Dew PointF,Humidity,Sea Level PressureIn,VisibilityMPH,Wind Direction,Wind SpeedMPH,Gust SpeedMPH,PrecipitationIn,Events,Conditions,WindDirDegrees,DateUTC
12:54 AM,48.0,37.9,68,29.95,10.0,South,4.6,-,N/A,,Overcast,180,2012-09-21 05:54:00
1:54 AM,48.0,37.9,68,29.96,10.0,South,3.5,-,N/A,,Mostly Cloudy,180,2012-09-21 06:54:00
2:54 AM,48.0,37.0,66,29.94,10.0,Calm,Calm,-,N/A,,Scattered Clouds,0,2012-09-21 07:54:00
3:54 AM,46.0,39.0,76,29.93,10.0,Calm,Calm,-,N/A,,Scattered Clouds,0,2012-09-21 08:54:00
4:54 AM,45.0,39.0,80,29.92,10.0,Calm,Calm,-,N/A,,Mostly Cloudy,0,2012-09-21 09:54:00
5:54 AM,46.0,39.0,76,29.92,10.0,Calm,Calm,-,N/A,,Mostly Cloudy,0,2012-09-21 10:54:00
6:54 AM,46.9,39.0,74,29.93,10.0,South,3.5,-,N/A,,Mostly Cloudy,190,2012-09-21 11:54:00
7:54 AM,48.0,41.0,77,29.94,10.0,Calm,Calm,-,0.00,Rain,Light Rain,0,2012-09-21 12:54:00
8:54 AM,51.1,43.0,74,29.95,10.0,SW,3.5,-,0.00,Rain,Light Rain,220,2012-09-21 13:54:00
9:54 AM,52.0,45.0,77,29.94,10.0,Calm,Calm,-,0.00,Rain,Light Rain,0,2012-09-21 14:54:00
10:54 AM,54.0,46.0,75,29.97,10.0,Calm,Calm,-,0.00,Rain,Light Rain,0,2012-09-21 15:54:00
11:54 AM,55.0,46.9,74,29.95,10.0,North,12.7,-,0.00,,Overcast,360,2012-09-21 16:54:00
12:54 PM,53.1,48.0,83,29.92,10.0,NNE,10.4,-,0.03,Rain,Light Rain,20,2012-09-21 17:54:00
1:54 PM,54.0,46.9,77,29.88,10.0,NE,8.1,-,0.00,Rain,Light Rain,40,2012-09-21 18:54:00
2:54 PM,52.0,48.9,89,29.88,9.0,NNE,10.4,-,0.05,Rain,Light Rain,30,2012-09-21 19:54:00
3:54 PM,51.1,48.0,89,29.89,7.0,North,6.9,-,0.05,Rain,Rain,10,2012-09-21 20:54:00
4:54 PM,52.0,50.0,93,29.84,10.0,ENE,6.9,-,0.03,,Overcast,70,2012-09-21 21:54:00
5:54 PM,51.1,50.0,96,29.83,10.0,SSE,9.2,-,0.00,,Overcast,160,2012-09-21 22:54:00
6:40 PM,51.8,48.2,88,29.84,10.0,Calm,Calm,-,N/A,,Overcast,0,2012-09-21 23:40:00
6:54 PM,51.1,48.9,92,29.85,10.0,Calm,Calm,-,N/A,,Overcast,0,2012-09-21 23:54:00
7:54 PM,50.0,48.9,96,29.85,10.0,Calm,Calm,-,N/A,,Mostly Cloudy,0,2012-09-22 00:54:00
8:54 PM,48.9,48.0,97,29.86,10.0,Calm,Calm,-,N/A,,Partly Cloudy,0,2012-09-22 01:54:00
9:54 PM,46.9,46.0,97,29.85,9.0,SW,3.5,-,N/A,Fog,Shallow Fog,230,2012-09-22 02:54:00
10:54 PM,48.0,46.9,96,29.88,10.0,NW,9.2,-,0.00,Rain,Light Rain,320,2012-09-22 03:54:00
11:54 PM,50.0,48.9,96,29.87,7.0,WSW,4.6,-,0.08,Rain,Light Rain,250,2012-09-22 04:54:00